Location: Sternwarte ZA, Rosenfeld-Brittheim
(48.2889°N, 8.6789°E)
Time: 20:24:59
(UTC+02:00)

ISS - Pass Details

Date: 20 July 2019
Orbit: 409 x 418 km, 51.6° (Epoch: 20 July)

Event Time Altitude Azimuth Distance (km) Brightness Sun altitude
Rises 04:39:59 0° 282° (WNW) 2,344 -0.3 -9.2°
Enters shadow 04:41:13 - 273° (W) 1,944 -0.8 -9.0°
Exits shadow 04:45:52 10° 200° (SSW) 1,489 -1.5 -8.5°
Sets 04:48:53 0° 169° (S) 2,323 -0.3 -8.1°
